Time,TemperatureF,DewpointF,PressureIn,WindDirection,WindDirectionDegrees,WindSpeedMPH,WindSpeedGustMPH,Humidity,HourlyPrecipIn,Conditions,Clouds,dailyrainin,SoftwareType,DateUTC
2013-07-28 00:02:00,59.0,-99.9,-100.00,SSE,162,3.0,6.0,-999,0.00,,,-99.99,,2013-07-28 06:02:00,
2013-07-28 00:12:00,60.0,-99.9,-100.00,SSE,166,5.0,7.0,-999,0.00,,,-99.99,,2013-07-28 06:12:00,
2013-07-28 00:22:00,59.0,-99.9,-100.00,SSE,163,4.0,6.0,-999,0.00,,,-99.99,,2013-07-28 06:22:00,
2013-07-28 00:32:00,59.0,-99.9,-100.00,SSE,148,3.0,6.0,-999,0.00,,,-99.99,,2013-07-28 06:32:00,
2013-07-28 00:43:00,59.0,-99.9,-100.00,SSE,159,3.0,7.0,-999,0.00,,,-99.99,,2013-07-28 06:43:00,
2013-07-28 00:53:00,59.0,-99.9,-100.00,South,173,5.0,7.0,-999,0.00,,,-99.99,,2013-07-28 06:53:00,
2013-07-28 01:02:00,59.0,-99.9,-100.00,South,172,6.0,8.0,-999,0.00,,,-99.99,,2013-07-28 07:02:00,
2013-07-28 01:12:00,60.0,-99.9,-100.00,SSE,155,5.0,8.0,-999,0.00,,,-99.99,,2013-07-28 07:12:00,
2013-07-28 01:23:00,59.0,-99.9,-100.00,South,191,5.0,7.0,-999,0.00,,,-99.99,,2013-07-28 07:23:00,
2013-07-28 01:32:00,59.0,-99.9,-100.00,South,181,6.0,8.0,-999,0.00,,,-99.99,,2013-07-28 07:32:00,
2013-07-28 01:43:00,59.0,-99.9,-100.00,South,179,6.0,7.0,-999,0.00,,,-99.99,,2013-07-28 07:43:00,
2013-07-28 01:53:00,58.0,-99.9,-100.00,South,184,6.0,8.0,-999,0.00,,,-99.99,,2013-07-28 07:53:00,
2013-07-28 02:02:00,58.0,-99.9,-100.00,SE,139,5.0,7.0,-999,0.00,,,-99.99,,2013-07-28 08:02:00,
2013-07-28 02:12:00,57.0,-99.9,-100.00,SSE,152,5.0,7.0,-999,0.00,,,-99.99,,2013-07-28 08:12:00,
2013-07-28 02:23:00,58.0,-99.9,-100.00,South,184,6.0,9.0,-999,0.00,,,-99.99,,2013-07-28 08:23:00,
2013-07-28 02:33:00,57.0,-99.9,-100.00,SSE,167,5.0,7.0,-999,0.00,,,-99.99,,2013-07-28 08:33:00,
2013-07-28 02:43:00,57.0,-99.9,-100.00,SSE,158,3.0,6.0,-999,0.00,,,-99.99,,2013-07-28 08:43:00,
2013-07-28 02:53:00,57.0,-99.9,-100.00,South,170,4.0,8.0,-999,0.00,,,-99.99,,2013-07-28 08:53:00,
2013-07-28 03:02:00,56.0,-99.9,-100.00,SSW,197,2.0,6.0,-999,0.00,,,-99.99,,2013-07-28 09:02:00,
2013-07-28 03:12:00,56.0,-99.9,-100.00,SSW,197,2.0,5.0,-999,0.00,,,-99.99,,2013-07-28 09:12:00,
2013-07-28 03:22:00,56.0,-99.9,-100.00,South,183,1.0,5.0,-999,0.00,,,-99.99,,2013-07-28 09:22:00,
2013-07-28 03:32:00,55.0,-99.9,-100.00,North,0,0.0,0.0,-999,0.00,,,-99.99,,2013-07-28 09:32:00,
2013-07-28 03:43:00,55.0,-99.9,-100.00,North,0,0.0,0.0,-999,0.00,,,-99.99,,2013-07-28 09:43:00,
2013-07-28 03:53:00,54.0,-99.9,-100.00,North,0,0.0,0.0,-999,0.00,,,-99.99,,2013-07-28 09:53:00,
2013-07-28 04:02:00,54.0,-99.9,-100.00,North,0,0.0,0.0,-999,0.00,,,-99.99,,2013-07-28 10:02:00,
2013-07-28 04:12:00,54.0,-99.9,-100.00,SSW,205,1.0,5.0,-999,0.00,,,-99.99,,2013-07-28 10:12:00,
2013-07-28 04:22:00,54.0,-99.9,-100.00,North,0,0.0,0.0,-999,0.00,,,-99.99,,2013-07-28 10:22:00,
2013-07-28 04:33:00,53.0,-99.9,-100.00,North,0,0.0,0.0,-999,0.00,,,-99.99,,2013-07-28 10:33:00,
2013-07-28 04:42:00,53.0,-99.9,-100.00,North,0,0.0,0.0,-999,0.00,,,-99.99,,2013-07-28 10:42:00,
2013-07-28 04:53:00,52.0,-99.9,-100.00,North,0,0.0,0.0,-999,0.00,,,-99.99,,2013-07-28 10:53:00,
2013-07-28 05:12:00,53.0,-99.9,-100.00,SE,132,1.0,3.0,-999,0.00,,,-99.99,,2013-07-28 11:12:00,
2013-07-28 05:22:00,53.0,-99.9,-100.00,North,0,0.0,0.0,-999,0.00,,,-99.99,,2013-07-28 11:22:00,
2013-07-28 05:33:00,53.0,-99.9,-100.00,SE,132,0.0,3.0,-999,0.00,,,-99.99,,2013-07-28 11:33:00,
2013-07-28 05:43:00,53.0,-99.9,-100.00,South,181,2.0,5.0,-999,0.00,,,-99.99,,2013-07-28 11:43:00,
2013-07-28 05:54:00,52.0,-99.9,-100.00,South,191,1.0,3.0,-999,0.00,,,-99.99,,2013-07-28 11:54:00,
2013-07-28 06:03:00,52.0,-99.9,-100.00,SE,138,2.0,5.0,-999,0.00,,,-99.99,,2013-07-28 12:03:00,
2013-07-28 06:13:00,53.0,-99.9,-100.00,South,176,1.0,6.0,-999,0.00,,,-99.99,,2013-07-28 12:13:00,
2013-07-28 06:22:00,53.0,-99.9,-100.00,South,181,2.0,6.0,-999,0.00,,,-99.99,,2013-07-28 12:22:00,
2013-07-28 06:33:00,54.0,-99.9,-100.00,South,183,3.0,6.0,-999,0.00,,,-99.99,,2013-07-28 12:33:00,
2013-07-28 06:43:00,55.0,-99.9,-100.00,South,183,4.0,6.0,-999,0.00,,,-99.99,,2013-07-28 12:43:00,
2013-07-28 06:53:00,56.0,-99.9,-100.00,South,179,1.0,5.0,-999,0.00,,,-99.99,,2013-07-28 12:53:00,
2013-07-28 07:03:00,56.0,-99.9,-100.00,SSE,162,4.0,7.0,-999,0.00,,,-99.99,,2013-07-28 13:03:00,
2013-07-28 07:12:00,57.0,-99.9,-100.00,SSE,158,3.0,5.0,-999,0.00,,,-99.99,,2013-07-28 13:12:00,
2013-07-28 07:22:00,58.0,-99.9,-100.00,South,177,3.0,5.0,-999,0.00,,,-99.99,,2013-07-28 13:22:00,
2013-07-28 07:32:00,57.0,-99.9,-100.00,SSE,162,1.0,5.0,-999,0.00,,,-99.99,,2013-07-28 13:32:00,
2013-07-28 07:43:00,58.0,-99.9,-100.00,ESE,104,2.0,5.0,-999,0.00,,,-99.99,,2013-07-28 13:43:00,
2013-07-28 07:53:00,58.0,-99.9,-100.00,SSE,160,3.0,6.0,-999,0.00,,,-99.99,,2013-07-28 13:53:00,
2013-07-28 08:02:00,58.0,-99.9,-100.00,SSW,193,4.0,6.0,-999,0.00,,,-99.99,,2013-07-28 14:02:00,
2013-07-28 08:12:00,58.0,-99.9,-100.00,South,191,2.0,5.0,-999,0.00,,,-99.99,,2013-07-28 14:12:00,
2013-07-28 08:23:00,57.0,-99.9,-100.00,South,180,0.0,3.0,-999,0.00,,,-99.99,,2013-07-28 14:23:00,
2013-07-28 08:33:00,57.0,-99.9,-100.00,North,0,0.0,0.0,-999,0.00,,,-99.99,,2013-07-28 14:33:00,
2013-07-28 08:43:00,58.0,-99.9,-100.00,North,0,0.0,0.0,-999,0.00,,,-99.99,,2013-07-28 14:43:00,
2013-07-28 08:53:00,57.0,-99.9,-100.00,North,0,0.0,0.0,-999,0.00,,,-99.99,,2013-07-28 14:53:00,
2013-07-28 09:03:00,57.0,-99.9,-100.00,North,0,0.0,0.0,-999,0.00,,,-99.99,,2013-07-28 15:03:00,
2013-07-28 09:13:00,57.0,-99.9,-100.00,North,0,0.0,0.0,-999,0.00,,,-99.99,,2013-07-28 15:13:00,
2013-07-28 09:23:00,57.0,-99.9,-100.00,SSE,152,1.0,3.0,-999,0.00,,,-99.99,,2013-07-28 15:23:00,
2013-07-28 09:33:00,57.0,-99.9,-100.00,North,0,0.0,0.0,-999,0.00,,,-99.99,,2013-07-28 15:33:00,
2013-07-28 09:43:00,58.0,-99.9,-100.00,North,0,0.0,0.0,-999,0.00,,,-99.99,,2013-07-28 15:43:00,
2013-07-28 09:53:00,58.0,-99.9,-100.00,North,0,0.0,0.0,-999,0.00,,,-99.99,,2013-07-28 15:53:00,
2013-07-28 10:03:00,58.0,-99.9,-100.00,North,0,0.0,0.0,-999,0.00,,,-99.99,,2013-07-28 16:03:00,
2013-07-28 10:12:00,58.0,-99.9,-100.00,North,0,0.0,0.0,-999,0.00,,,-99.99,,2013-07-28 16:12:00,
2013-07-28 10:22:00,58.0,-99.9,-100.00,North,0,0.0,0.0,-999,0.00,,,-99.99,,2013-07-28 16:22:00,
2013-07-28 10:33:00,58.0,-99.9,-100.00,South,186,5.0,7.0,-999,0.00,,,-99.99,,2013-07-28 16:33:00,
2013-07-28 10:43:00,57.0,-99.9,-100.00,SSE,150,4.0,7.0,-999,0.00,,,-99.99,,2013-07-28 16:43:00,
2013-07-28 10:53:00,58.0,-99.9,-100.00,ESE,104,2.0,5.0,-999,0.00,,,-99.99,,2013-07-28 16:53:00,
2013-07-28 11:02:00,58.0,-99.9,-100.00,East,91,6.0,7.0,-999,0.00,,,-99.99,,2013-07-28 17:02:00,
2013-07-28 11:13:00,59.0,-99.9,-100.00,East,97,7.0,10.0,-999,0.00,,,-99.99,,2013-07-28 17:13:00,
2013-07-28 11:23:00,60.0,-99.9,-100.00,East,86,7.0,10.0,-999,0.00,,,-99.99,,2013-07-28 17:23:00,
2013-07-28 11:33:00,61.0,-99.9,-100.00,East,100,7.0,8.0,-999,0.00,,,-99.99,,2013-07-28 17:33:00,
2013-07-28 11:44:00,62.0,-99.9,-100.00,SE,136,7.0,10.0,-999,0.00,,,-99.99,,2013-07-28 17:44:00,
2013-07-28 11:53:00,63.0,-99.9,-100.00,SSE,158,6.0,8.0,-999,0.00,,,-99.99,,2013-07-28 17:53:00,
2013-07-28 12:03:00,65.0,-99.9,-100.00,South,169,7.0,10.0,-999,0.00,,,-99.99,,2013-07-28 18:03:00,
2013-07-28 12:13:00,67.0,-99.9,-100.00,South,174,6.0,8.0,-999,0.00,,,-99.99,,2013-07-28 18:13:00,
2013-07-28 12:23:00,68.0,-99.9,-100.00,SSE,167,6.0,8.0,-999,0.00,,,-99.99,,2013-07-28 18:23:00,
2013-07-28 12:33:00,72.0,-99.9,-100.00,SSW,204,6.0,8.0,-999,0.00,,,-99.99,,2013-07-28 18:33:00,
2013-07-28 13:33:00,77.0,-99.9,-100.00,SSW,201,6.0,8.0,-999,0.00,,,-99.99,,2013-07-28 19:33:00,
2013-07-28 14:43:00,81.0,-99.9,-100.00,WSW,249,5.0,7.0,-999,0.00,,,-99.99,,2013-07-28 20:43:00,
2013-07-28 14:53:00,80.0,-99.9,-100.00,SSW,200,5.0,6.0,-999,0.00,,,-99.99,,2013-07-28 20:53:00,
2013-07-28 15:03:00,80.0,-99.9,-100.00,North,0,0.0,0.0,-999,0.00,,,-99.99,,2013-07-28 21:03:00,
2013-07-28 15:13:00,80.0,-99.9,-100.00,North,0,0.0,0.0,-999,0.00,,,-99.99,,2013-07-28 21:13:00,
2013-07-28 15:23:00,79.0,-99.9,-100.00,North,0,0.0,0.0,-999,0.00,,,-99.99,,2013-07-28 21:23:00,
2013-07-28 15:33:00,76.0,-99.9,-100.00,North,0,0.0,0.0,-999,0.00,,,-99.99,,2013-07-28 21:33:00,
2013-07-28 15:44:00,76.0,-99.9,-100.00,North,0,0.0,0.0,-999,0.00,,,-99.99,,2013-07-28 21:44:00,
2013-07-28 16:43:00,69.0,-99.9,-100.00,NE,39,6.0,7.0,-999,0.00,,,-99.99,,2013-07-28 22:43:00,
2013-07-28 16:52:00,71.0,-99.9,-100.00,NNE,31,5.0,6.0,-999,0.00,,,-99.99,,2013-07-28 22:52:00,
2013-07-28 17:03:00,74.0,-99.9,-100.00,NNE,20,5.0,7.0,-999,0.00,,,-99.99,,2013-07-28 23:03:00,
2013-07-28 17:12:00,74.0,-99.9,-100.00,ENE,58,4.0,5.0,-999,0.00,,,-99.99,,2013-07-28 23:12:00,
2013-07-28 17:23:00,76.0,-99.9,-100.00,North,0,0.0,0.0,-999,0.00,,,-99.99,,2013-07-28 23:23:00,
2013-07-28 17:33:00,74.0,-99.9,-100.00,North,0,0.0,0.0,-999,0.00,,,-99.99,,2013-07-28 23:33:00,
2013-07-28 17:43:00,74.0,-99.9,-100.00,North,0,0.0,0.0,-999,0.00,,,-99.99,,2013-07-28 23:43:00,
2013-07-28 17:53:00,71.0,-99.9,-100.00,North,0,0.0,0.0,-999,0.00,,,-99.99,,2013-07-28 23:53:00,
2013-07-28 18:03:00,71.0,-99.9,-100.00,North,0,0.0,0.0,-999,0.00,,,-99.99,,2013-07-29 00:03:00,
2013-07-28 18:22:00,72.0,-99.9,-100.00,SE,146,2.0,4.0,-999,0.00,,,-99.99,,2013-07-29 00:22:00,
2013-07-28 18:32:00,71.0,-99.9,-100.00,SSE,152,4.0,7.0,-999,0.00,,,-99.99,,2013-07-29 00:32:00,
2013-07-28 18:43:00,71.0,-99.9,-100.00,SSE,152,4.0,7.0,-999,0.00,,,-99.99,,2013-07-29 00:43:00,
2013-07-28 18:52:00,71.0,-99.9,-100.00,SSE,152,4.0,7.0,-999,0.00,,,-99.99,,2013-07-29 00:52:00,
2013-07-28 19:02:00,70.0,-99.9,-100.00,South,184,3.0,5.0,-999,0.00,,,-99.99,,2013-07-29 01:02:00,
2013-07-28 19:30:00,73.0,-99.9,-100.00,North,0,0.0,0.0,-999,0.00,,,-99.99,,2013-07-29 01:30:00,
2013-07-28 19:40:00,71.0,-99.9,-100.00,ESE,120,2.0,6.0,-999,0.00,,,-99.99,,2013-07-29 01:40:00,
2013-07-28 20:03:00,77.0,-99.9,-100.00,SSW,197,3.0,6.0,-999,0.00,,,-99.99,,2013-07-29 02:03:00,
2013-07-28 20:16:00,70.0,-99.9,-100.00,SSE,156,3.0,5.0,-999,0.00,,,-99.99,,2013-07-29 02:16:00,
2013-07-28 20:27:00,68.0,-99.9,-100.00,SSW,198,1.0,4.0,-999,0.00,,,-99.99,,2013-07-29 02:27:00,
2013-07-28 20:41:00,69.0,-99.9,-100.00,South,180,6.0,8.0,-999,0.00,,,-99.99,,2013-07-29 02:41:00,
2013-07-28 20:52:00,69.0,-99.9,-100.00,South,191,6.0,8.0,-999,0.00,,,-99.99,,2013-07-29 02:52:00,
2013-07-28 21:00:00,69.0,-99.9,-100.00,South,176,5.0,7.0,-999,0.00,,,-99.99,,2013-07-29 03:00:00,
2013-07-28 21:06:00,68.0,-99.9,-100.00,SSW,205,4.0,6.0,-999,0.00,,,-99.99,,2013-07-29 03:06:00,
2013-07-28 21:17:00,68.0,-99.9,-100.00,SW,224,0.0,7.0,-999,0.00,,,-99.99,,2013-07-29 03:17:00,
2013-07-28 21:38:00,68.0,-99.9,-100.00,SSW,195,5.0,6.0,-999,0.00,,,-99.99,,2013-07-29 03:38:00,
2013-07-28 21:52:00,68.0,-99.9,-100.00,North,0,0.0,0.0,-999,0.00,,,-99.99,,2013-07-29 03:52:00,
2013-07-28 21:58:00,67.0,-99.9,-100.00,North,0,0.0,0.0,-999,0.00,,,-99.99,,2013-07-29 03:58:00,
2013-07-28 22:02:00,67.0,-99.9,-100.00,SW,229,6.0,7.0,-999,0.00,,,-99.99,,2013-07-29 04:02:00,
2013-07-28 22:12:00,67.0,-99.9,-100.00,SW,214,7.0,7.0,-999,0.00,,,-99.99,,2013-07-29 04:12:00,
2013-07-28 22:22:00,67.0,-99.9,-100.00,SSW,212,6.0,8.0,-999,0.00,,,-99.99,,2013-07-29 04:22:00,
2013-07-28 22:33:00,66.0,-99.9,-100.00,WSW,243,5.0,7.0,-999,0.00,,,-99.99,,2013-07-29 04:33:00,
2013-07-28 22:43:00,66.0,-99.9,-100.00,SW,221,5.0,7.0,-999,0.00,,,-99.99,,2013-07-29 04:43:00,
2013-07-28 22:53:00,65.0,-99.9,-100.00,WSW,250,4.0,5.0,-999,0.00,,,-99.99,,2013-07-29 04:53:00,
2013-07-28 23:02:00,65.0,-99.9,-100.00,WSW,250,4.0,5.0,-999,0.00,,,-99.99,,2013-07-29 05:02:00,
2013-07-28 23:12:00,65.0,-99.9,-100.00,WSW,252,5.0,6.0,-999,0.00,,,-99.99,,2013-07-29 05:12:00,
2013-07-28 23:22:00,65.0,-99.9,-100.00,SW,214,4.0,6.0,-999,0.00,,,-99.99,,2013-07-29 05:22:00,
2013-07-28 23:32:00,65.0,-99.9,-100.00,North,0,0.0,0.0,-999,0.00,,,-99.99,,2013-07-29 05:32:00,
2013-07-28 23:43:00,65.0,-99.9,-100.00,North,0,0.0,0.0,-999,0.00,,,-99.99,,2013-07-29 05:43:00,
2013-07-28 23:53:00,65.0,-99.9,-100.00,West,264,4.0,5.0,-999,0.00,,,-99.99,,2013-07-29 05:53:00,